Leadville, CO

6:03 PM MDT on August 16, 2017 (GMT -0600)
Lake County

Weather History for KLXV - November, 2011

Change the Weather History Date:

Thursday, November 10, 2011

  Actual Average Record
Temperature  
Mean Temperature 20 °F -  
Max Temperature 36 °F 39 °F 59 °F (1980)
Min Temperature 4 °F 15 °F -3 °F (1984)
Degree Days  
Heating Degree Days 45 38  
Month to date heating degree days 439 363  
Since 1 July heating degree days 2391 2552  
Cooling Degree Days 0 0  
Month to date cooling degree days 0 0  
Year to date cooling degree days 0 0  
Moisture  
Dew Point -10 °F    
Average Humidity 37    
Maximum Humidity 60    
Minimum Humidity 13    
Precipitation  
Precipitation 0.00 in 0.02 in 0.21 in (2015)
Month to date precipitation 0.40 0.28  
Year to date precipitation 14.29 11.22  
Sea Level Pressure  
Sea Level Pressure 30.36 in    
Wind  
Wind Speed 7 mph (NE)    
Max Wind Speed 22 mph    
Max Gust Speed 28 mph    
Visibility 10 miles    
Events      
T = Trace of Precipitation, MM = Missing Value Source: NWS Daily Summary

Daily Weather History Graph

Daily Weather History Graph

Search for Another Location

Airport or City:

Trip Planner

Search our weather history database for the weather conditions in past years. The results will help you decide how hot, cold, wet, or windy it might be!

Date:

Astronomy

Nov. 10, 2011 Rise Set
Actual Time 6:42 AM MST 4:55 PM MST
Civil Twilight 6:14 AM MST 5:23 PM MST
Nautical Twilight 5:42 AM MST 5:55 PM MST
Astronomical Twilight 5:10 AM MST 6:26 PM MST
Moon 4:45 PM MST (11/10) 6:37 AM MST (11/10)
Length of Visible Light 11h 08m
Length of Day
10h 12m
Full, 100% of the Moon is Illuminated
Nov 10
Full
Nov 10
Full
Nov 18
Last Quarter
Nov 24
New
Dec 2
First Quarter

Hourly Weather History & Observations

Time (MST) Temp. Windchill Dew Point Humidity Pressure Visibility Wind Dir Wind Speed Gust Speed Precip Events Conditions
12:53 AM 6.1 °F -0.9 °F -5.1 °F 60% 30.49 in 10.0 mi Variable 3.5 mph - N/A   Clear
1:53 AM 6.1 °F -0.9 °F -6.0 °F 58% 30.48 in 10.0 mi Variable 3.5 mph - N/A   Clear
2:53 AM 9.0 °F -3.2 °F -8.0 °F 46% 30.46 in 10.0 mi East 8.1 mph - N/A   Clear
3:53 AM 9.0 °F -4.2 °F -9.0 °F 44% 30.45 in 10.0 mi East 9.2 mph - N/A   Clear
4:53 AM 9.0 °F 2.4 °F -9.9 °F 42% 30.49 in 10.0 mi North 3.5 mph - N/A   Clear
5:53 AM 9.0 °F -0.9 °F -11.0 °F 40% 30.52 in 10.0 mi ENE 5.8 mph - N/A   Clear
6:53 AM 8.1 °F -5.3 °F -9.9 °F 44% 30.56 in 10.0 mi East 9.2 mph - N/A   Clear
7:53 AM 15.1 °F 6.4 °F -7.1 °F 37% 30.52 in 10.0 mi NE 5.8 mph - N/A   Clear
8:53 AM 24.1 °F 16.0 °F -8.0 °F 24% 30.48 in 10.0 mi NE 6.9 mph - N/A   Clear
9:53 AM 30.0 °F 22.4 °F -11.9 °F 16% 30.43 in 10.0 mi NE 8.1 mph - N/A   Clear
10:53 AM 34.0 °F - -13.0 °F 13% 30.40 in 10.0 mi Calm Calm - N/A   Clear
11:53 AM 33.1 °F 23.4 °F -11.9 °F 14% 30.35 in 10.0 mi NW 13.8 mph 25.3 mph N/A   Clear
12:53 PM 34.0 °F - -11.9 °F 14% 30.32 in 9.0 mi North - - N/A   Clear
1:53 PM 35.1 °F 24.8 °F -9.9 °F 14% 30.29 in - NNW 17.3 mph 24.2 mph N/A   Clear
2:53 PM 34.0 °F 23.8 °F -9.0 °F 16% 30.28 in 10.0 mi NW 16.1 mph 26.5 mph N/A   Clear
3:53 PM 33.1 °F 21.9 °F -9.0 °F 16% 30.30 in 10.0 mi NNW 18.4 mph 24.2 mph N/A   Clear
4:53 PM 28.9 °F - -13.0 °F 16% 30.31 in 10.0 mi Calm Calm - N/A   Clear
5:53 PM 26.1 °F 21.9 °F -9.0 °F 21% 30.31 in 10.0 mi Variable 3.5 mph - N/A   Clear
6:53 PM 23.0 °F - -8.0 °F 25% 30.33 in 10.0 mi Calm Calm - N/A   Clear
7:53 PM 21.0 °F 13.4 °F -7.1 °F 29% 30.29 in 10.0 mi East 5.8 mph - N/A   Clear
8:53 PM 25.0 °F 16.3 °F -9.0 °F 22% 30.19 in 10.0 mi ENE 8.1 mph - N/A   Clear
9:53 PM 26.1 °F 17.6 °F -13.0 °F 18% 30.14 in 10.0 mi NNE 8.1 mph - N/A   Clear
10:53 PM 23.0 °F 14.7 °F -13.0 °F 20% 30.12 in 10.0 mi ENE 6.9 mph - N/A   Clear
11:53 PM 28.0 °F 20.8 °F -18.0 °F 13% 30.08 in 10.0 mi NNW 6.9 mph - N/A   Clear